Hourly Data Report for October 20, 2015

All times are specified in Local Standard Time (LST). Add 1 hour to adjust for Daylight Saving Time where and when it is observed.

MONCTON INTL A
NEW BRUNSWICK

46°06'44.000" N
64°40'43.000" W
70.70 m
8103201
71705
YQM

Download Data

Hourly Data (October 2015)
Hourly Data Report for October 20, 2015
Temp Definition
°C
Dew Point Temp Definition
°C
Rel Hum Definition
%
Wind Dir Definition
10's deg

Wind Spd Definition
km/h
Visibility Definition
km
Stn Press Definition
kPa
Hmdx Definition


Wind Chill Definition


Weather Definition


TIME
00:00 Legend Double Dagger 1.4 -6.7 55 21 14 24.1 101.01     LegendNANA
01:00 Legend Double Dagger 2.3 -6.8 51 22 19 24.1 100.93     LegendNANA
02:00 Legend Double Dagger 2.9 -6.5 50 23 19 24.1 100.87     Mostly Cloudy
03:00 Legend Double Dagger 3.3 -5.9 51 22 17 24.1 100.80     LegendNANA
04:00 Legend Double Dagger 4.3 -4.5 53 22 19 24.1 100.73     LegendNANA
05:00 Legend Double Dagger 4.6 -3.0 58 21 13 24.1 100.67     Mostly Cloudy
06:00 Legend Double Dagger 5.5 -0.8 64 21 16 24.1 100.62     LegendNANA
07:00 Legend Double Dagger 6.4 -0.6 61 21 17 24.1 100.58     LegendNANA
08:00 Legend Double Dagger 6.9 1.4 68 21 16 24.1 100.57     Cloudy
09:00 Legend Double Dagger 7.8 2.9 71 20 22 24.1 100.50     LegendNANA
10:00 Legend Double Dagger 9.5 4.8 72 18 18 24.1 100.45     LegendNANA
11:00 Legend Double Dagger 10.5 5.1 69 18 18 24.1 100.39     Cloudy
12:00 Legend Double Dagger 11.6 4.4 61 22 28 24.1 100.33     LegendNANA
13:00 Legend Double Dagger 12.0 4.3 59 22 34 24.1 100.25     LegendNANA
14:00 Legend Double Dagger 11.8 4.6 61 22 27 24.1 100.19     Cloudy
15:00 Legend Double Dagger 12.8 5.5 61 22 38 24.1 100.11     LegendNANA
16:00 Legend Double Dagger 12.5 5.9 64 23 36 24.1 100.17     LegendNANA
17:00 Legend Double Dagger 12.1 6.4 68 23 21 24.1 100.24     Cloudy
18:00 Legend Double Dagger 11.2 6.6 73 22 14 24.1 100.31     LegendNANA
19:00 Legend Double Dagger 11.2 6.6 73 23 19 24.1 100.38     LegendNANA
20:00 Legend Double Dagger 10.9 6.7 75 23 21 24.1 100.46     Cloudy
21:00 Legend Double Dagger 10.8 6.6 75 24 21 24.1 100.57     LegendNANA
22:00 Legend Double Dagger 8.7 -0.6 52 31 18 24.1 100.74     LegendNANA
23:00 Legend Double Dagger 6.3 -2.8 52 29 13 24.1 100.81     Mainly Clear

Notes on Data Quality.

Legend

  • E = Estimated
  • M = Missing
  • NA = Not Available
  • ‡ = Partner data that is not subject to review by the National Climate Archives
Date modified: